Location: Austin
(30.3000°N, 97.7500°W)
Time: 12:01:12
(UTC-05:00)

Cosmos 292 Rocket - Pass Details

Date: 05 September 2024
Orbit: 668 x 686 km, 74.0° (Epoch: 11 September)

Event Time Altitude Azimuth Distance (km) Brightness Sun altitude
Rises 20:40:28 0° 346° (NNW) 3,011 7.5 -11.9°
Reaches altitude 10° 20:42:47 10° 348° (NNW) 2,095 6.6 -12.4°
Maximum altitude 20:47:28 73° 73° (ENE) 699 3.6 -13.4°
Drops below altitude 10° 20:52:09 10° 159° (SSE) 2,087 5.9 -14.4°
Enters shadow 20:52:43 - 159° (SSE) 2,306 6.1 -14.5°
